|
Cosmos 2237 Rocket - Orbit
|
Valley View Observatory;
01:21:03
| Home | Info | Passes |
|
View from above orbital plane
|
View from above satellite
|
Ground track
|
The orbit data is extracted from the following two-line orbital elements,
1 22566U 93016B 13140.72428372 .00000268 00000-0 16372-3 0 7901
2 22566 071.0089 310.9142 0012034 243.5368 116.4521 14.14779824 40730
| Epoch (UTC): | 20 May 2013 17:22:58 |
| Eccentricity: | 0.0012034 |
| inclination: | 71.0089° |
| perigee height: | 834 km |
| apogee height: | 852 km |
| right ascension of ascending node: | 310.9142° |
| argument of perigee: | 243.5368° |
| revolutions per day: | 14.14779824 |
| mean anomaly at epoch: | 116.4521° |
| orbit number at epoch: | 4073 |
The dashed part of the orbit path shows where the satellite is in the earth's shadow,
|
|